Location: Hurecourt
(47.9030°N, 6.0653°E)
Time: 19:56:26
(UTC+00:00)

Cosmos 1271 Rocket - Pass Details

Date: 14 July 2020
Orbit: 498 x 546 km, 81.2° (Epoch: 14 August)

Event Time Altitude Azimuth Distance (km) Brightness Sun altitude
Rises 02:40:40 0° 351° (N) 2,632 6.9 -9.7°
Reaches altitude 10° 02:42:51 10° 355° (N) 1,734 6.0 -9.5°
Maximum altitude 02:46:37 60° 77° (ENE) 581 3.2 -9.1°
Drops below altitude 10° 02:50:18 10° 158° (SSE) 1,701 5.1 -8.7°
Sets 02:52:25 0° 162° (SSE) 2,577 6.0 -8.4°
